Mount Airy, NC

7:04 PM EDT on June 27, 2017 (GMT -0400)
Mount Airy-Surry County

Weather History for KMWK - January, 2014

Change the Weather History Date:

Wednesday, January 15, 2014

  Actual Average (KINT) Record (KINT)
Temperature  
Mean Temperature 40 °F -  
Max Temperature 52 °F 45 °F 68 °F (2007)
Min Temperature 28 °F 29 °F 11 °F (1969)
Degree Days  
Heating Degree Days 25    
Moisture  
Dew Point 30 °F    
Average Humidity 78    
Maximum Humidity 93    
Minimum Humidity 47    
Precipitation  
Precipitation 0.01 in - - ()
Sea Level Pressure  
Sea Level Pressure 29.90 in    
Wind  
Wind Speed 2 mph (NNW)    
Max Wind Speed 15 mph    
Max Gust Speed 23 mph    
Visibility 9 miles    
Events Snow    
Averages and records for this station are not official NWS values.
T = Trace of Precipitation, MM = Missing Value Source: NWS Daily Summary

Daily Weather History Graph

Daily Weather History Graph

Search for Another Location

Airport or City:

Trip Planner

Search our weather history database for the weather conditions in past years. The results will help you decide how hot, cold, wet, or windy it might be!

Date:

Astronomy

Jan. 15, 2014 Rise Set
Actual Time 7:33 AM EST 5:30 PM EST
Civil Twilight 7:05 AM EST 5:58 PM EST
Nautical Twilight 6:33 AM EST 6:30 PM EST
Astronomical Twilight 6:02 AM EST 7:01 PM EST
Moon 5:25 PM EST (1/15) 6:49 AM EST (1/15)
Length of Visible Light 10h 53m
Length of Day
9h 57m
Full, 100% of the Moon is Illuminated
Jan 15
Full
Jan 15
Full
Jan 24
Last Quarter
Jan 30
New
Feb 6
First Quarter

Hourly Weather History & Observations

Time (EST) Temp. Windchill Dew Point Humidity Pressure Visibility Wind Dir Wind Speed Gust Speed Precip Events Conditions
12:15 AM 32.0 °F - 28.8 °F 88% 29.91 in 10.0 mi Calm Calm - N/A   Clear
12:35 AM 32.9 °F - 29.1 °F 86% 29.91 in 10.0 mi Calm Calm - N/A   Clear
12:55 AM 32.4 °F - 28.9 °F 87% 29.90 in 10.0 mi Calm Calm - N/A   Clear
1:15 AM 32.0 °F - 28.4 °F 87% 29.90 in 10.0 mi Calm Calm - N/A   Clear
1:35 AM 32.2 °F - 29.3 °F 89% 29.90 in 10.0 mi Calm Calm - N/A   Clear
1:55 AM 31.8 °F - 28.8 °F 88% 29.91 in 10.0 mi Calm Calm - N/A   Clear
2:15 AM 31.3 °F - 28.6 °F 90% 29.92 in 10.0 mi Calm Calm - N/A   Clear
2:35 AM 30.9 °F - 27.9 °F 88% 29.91 in 10.0 mi Calm Calm - N/A   Clear
2:55 AM 31.8 °F - 29.1 °F 90% 29.92 in 10.0 mi Calm Calm - N/A   Clear
3:15 AM 30.9 °F - 28.0 °F 89% 29.92 in 10.0 mi Calm Calm - N/A   Clear
3:35 AM 30.6 °F - 27.9 °F 90% 29.91 in 10.0 mi Calm Calm - N/A   Clear
3:55 AM 30.6 °F - 27.7 °F 89% 29.90 in 10.0 mi Calm Calm - N/A   Clear
4:15 AM 30.9 °F - 28.2 °F 90% 29.90 in 10.0 mi Calm Calm - N/A   Clear
4:35 AM 29.7 °F - 26.6 °F 88% 29.90 in 10.0 mi Calm Calm - N/A   Clear
4:55 AM 30.0 °F - 27.3 °F 90% 29.90 in 10.0 mi Calm Calm - N/A   Clear
5:15 AM 28.9 °F - 26.2 °F 90% 29.89 in 10.0 mi Calm Calm - N/A   Clear
5:35 AM 29.8 °F - 27.5 °F 91% 29.90 in 10.0 mi Calm Calm - N/A   Clear
5:55 AM 29.8 °F - 27.3 °F 90% 29.90 in 10.0 mi Calm Calm - N/A   Clear
6:15 AM 29.5 °F - 27.0 °F 90% 29.90 in 10.0 mi Calm Calm - N/A   Clear
6:35 AM 29.3 °F - 26.8 °F 90% 29.90 in 10.0 mi Calm Calm - N/A   Clear
6:55 AM 30.0 °F - 27.5 °F 90% 29.90 in 10.0 mi Calm Calm - N/A   Clear
7:15 AM 29.7 °F - 27.3 °F 91% 29.90 in 10.0 mi Calm Calm - N/A   Clear
7:35 AM 29.8 °F - 27.3 °F 90% 29.91 in 10.0 mi Calm Calm - N/A   Clear
7:55 AM 29.8 °F - 27.3 °F 90% 29.91 in 10.0 mi Calm Calm - N/A   Clear
8:15 AM 31.1 °F - 28.2 °F 89% 29.91 in 10.0 mi Calm Calm - N/A   Clear
8:35 AM 32.0 °F 28.7 °F 29.3 °F 90% 29.91 in 10.0 mi NW 3.5 mph - N/A   Clear
8:55 AM 33.4 °F - 30.2 °F 88% 29.92 in 10.0 mi Calm Calm - N/A   Mostly Cloudy
9:15 AM 38.5 °F - 33.6 °F 83% 29.91 in 10.0 mi Calm Calm - N/A   Mostly Cloudy
9:35 AM 40.5 °F - 34.5 °F 79% 29.91 in 10.0 mi Calm Calm - N/A   Mostly Cloudy
9:55 AM 43.0 °F - 34.2 °F 71% 29.91 in 10.0 mi Calm Calm - N/A   Overcast
10:15 AM 45.5 °F 44.2 °F 35.2 °F 67% 29.91 in 10.0 mi WNW 3.5 mph - N/A   Mostly Cloudy
10:35 AM 48.0 °F - 33.1 °F 56% 29.91 in 10.0 mi NW 5.8 mph - N/A   Scattered Clouds
10:55 AM 49.8 °F - 34.5 °F 56% 29.90 in 10.0 mi North 6.9 mph - N/A   Clear
11:15 AM 52.0 °F - 34.3 °F 51% 29.89 in 10.0 mi NNW 3.5 mph - N/A   Clear
11:35 AM 52.2 °F - 32.9 °F 48% 29.88 in 10.0 mi NNW 5.8 mph - N/A   Clear
11:55 AM 51.8 °F - 32.0 °F 47% 29.87 in 10.0 mi NW 6.9 mph - N/A   Clear
12:15 PM 52.0 °F - 33.1 °F 49% 29.86 in 10.0 mi WNW 9.2 mph - N/A   Clear
12:35 PM 52.0 °F - 34.2 °F 51% 29.85 in 10.0 mi North 6.9 mph - N/A   Clear
12:55 PM 50.9 °F - 34.0 °F 52% 29.85 in 10.0 mi NNW 9.2 mph - N/A   Scattered Clouds
1:15 PM 49.1 °F - 33.1 °F 54% 29.85 in 10.0 mi North 8.1 mph 17.3 mph N/A   Scattered Clouds
1:35 PM 47.7 °F - 32.0 °F 55% 29.85 in 10.0 mi NW 11.5 mph 18.4 mph N/A   Mostly Cloudy
1:55 PM 46.9 °F - 31.1 °F 54% 29.85 in 10.0 mi WNW 10.4 mph 18.4 mph N/A   Mostly Cloudy
2:15 PM 46.6 °F - 30.6 °F 54% 29.86 in 10.0 mi NW 9.2 mph 16.1 mph N/A   Mostly Cloudy
2:35 PM 45.0 °F 38.5 °F 30.2 °F 56% 29.86 in 10.0 mi NW 13.8 mph 19.6 mph N/A   Overcast
2:55 PM 43.5 °F 37.5 °F 30.2 °F 59% 29.87 in 10.0 mi WNW 11.5 mph 21.9 mph N/A   Overcast
3:15 PM 42.8 °F 35.4 °F 30.2 °F 61% 29.88 in 10.0 mi NW 15.0 mph 23.0 mph N/A   Overcast
3:35 PM 42.3 °F 35.5 °F 30.6 °F 63% 29.88 in 10.0 mi WNW 12.7 mph 20.7 mph N/A   Overcast
3:55 PM 40.3 °F 34.4 °F 32.0 °F 72% 29.88 in 10.0 mi NNW 9.2 mph 19.6 mph N/A   Light Drizzle
4:15 PM 39.7 °F 34.3 °F 31.5 °F 72% 29.89 in 10.0 mi NNW 8.1 mph - N/A   Overcast
4:35 PM 39.4 °F 33.8 °F 30.7 °F 71% 29.89 in 10.0 mi NW 8.1 mph - N/A   Overcast
4:55 PM 38.5 °F 33.4 °F 31.6 °F 76% 29.89 in 10.0 mi North 6.9 mph - N/A   Overcast
5:15 PM 37.6 °F 33.1 °F 32.0 °F 80% 29.90 in 10.0 mi NW 5.8 mph - N/A Snow Light Snow
5:35 PM 36.9 °F 30.1 °F 32.0 °F 83% 29.90 in 4.0 mi NW 9.2 mph 16.1 mph N/A Snow Light Snow
5:55 PM 35.6 °F 29.2 °F 32.0 °F 87% 29.90 in 3.0 mi NW 8.1 mph - N/A Snow Light Snow
6:15 PM 35.1 °F 30.1 °F 32.0 °F 89% 29.90 in 2.5 mi NW 5.8 mph - N/A Snow Light Snow
6:35 PM 34.7 °F 30.6 °F 32.0 °F 90% 29.92 in 3.0 mi NNW 4.6 mph - N/A Snow Light Snow
6:55 PM 34.3 °F 29.2 °F 32.0 °F 91% 29.91 in 1.2 mi North 5.8 mph - 0.01 in Snow Light Snow
7:15 PM 34.3 °F 31.4 °F 32.0 °F 91% 29.90 in 4.0 mi NNE 3.5 mph - N/A Snow Light Snow
7:35 PM 34.3 °F - 32.0 °F 91% 29.90 in 10.0 mi Calm Calm - N/A   Overcast
7:55 PM 34.3 °F - 31.8 °F 90% 29.91 in 10.0 mi Calm Calm - N/A   Overcast
8:15 PM 34.3 °F - 32.0 °F 91% 29.90 in 10.0 mi Calm Calm - N/A Snow Light Snow
8:35 PM 34.2 °F - 32.0 °F 92% 29.91 in 10.0 mi Calm Calm - N/A   Mostly Cloudy
8:55 PM 33.8 °F - 32.0 °F 93% 29.92 in 10.0 mi Calm Calm - N/A   Mostly Cloudy
9:15 PM 33.6 °F - 31.6 °F 92% 29.92 in 10.0 mi Calm Calm - N/A   Overcast
9:35 PM 33.1 °F - 31.3 °F 93% 29.93 in 10.0 mi Calm Calm - N/A   Scattered Clouds
9:55 PM 33.3 °F 30.2 °F 30.2 °F 89% 29.93 in 10.0 mi NNW 3.5 mph - N/A   Scattered Clouds
10:15 PM 34.2 °F 28.2 °F 28.4 °F 79% 29.92 in 10.0 mi NNW 6.9 mph - N/A   Scattered Clouds
10:35 PM 34.5 °F 27.9 °F 27.3 °F 75% 29.92 in 10.0 mi NNW 8.1 mph - N/A   Overcast
10:55 PM 34.3 °F 27.7 °F 24.8 °F 68% 29.92 in 10.0 mi NNW 8.1 mph - N/A   Scattered Clouds
11:15 PM 34.2 °F 28.2 °F 23.9 °F 66% 29.92 in 10.0 mi North 6.9 mph 18.4 mph N/A   Clear
11:35 PM 33.6 °F 26.8 °F 23.4 °F 66% 29.92 in 10.0 mi NNW 8.1 mph - N/A   Clear
11:55 PM 33.3 °F 26.4 °F 23.0 °F 66% 29.92 in 10.0 mi NNW 8.1 mph 17.3 mph N/A   Clear